| time (UTC) | temp F | wind direction | speed MPH | gust MPH | rain 1hr in | rain 24hr in | rain mn in | humidity % | barometer mb |
| 20260505223041 | 76 | 0 | 0.0 | 3.0 | 0.00 | 0.00 | 0.00 | 59 | 1013.2 |
| 20260505221536 | 76 | 245 | 0.0 | 4.0 | 0.00 | 0.00 | 0.00 | 58 | 1013.0 |
| 20260505220041 | 76 | 240 | 0.0 | 5.0 | 0.00 | 0.00 | 0.00 | 59 | 1013.0 |
| 20260505214536 | 77 | 246 | 1.0 | 4.0 | 0.00 | 0.00 | 0.00 | 58 | 1013.1 |
| 20260505213046 | 77 | 343 | 1.0 | 6.0 | 0.00 | 0.00 | 0.00 | 58 | 1013.0 |
| 20260505211543 | 77 | 331 | 1.0 | 4.0 | 0.00 | 0.00 | 0.00 | 58 | 1013.1 |
| 20260505210036 | 77 | 301 | 1.0 | 8.0 | 0.00 | 0.00 | 0.00 | 57 | 1013.0 |
| 20260505204537 | 77 | 250 | 0.0 | 2.0 | 0.00 | 0.00 | 0.00 | 58 | 1013.2 |
| 20260505203041 | 77 | 278 | 1.0 | 6.0 | 0.00 | 0.00 | 0.00 | 57 | 1013.3 |
| 20260505201543 | 78 | 262 | 1.0 | 4.0 | 0.00 | 0.00 | 0.00 | 55 | 1013.4 |
| 20260505200038 | 78 | 276 | 0.0 | 4.0 | 0.00 | 0.00 | 0.00 | 57 | 1013.7 |
| 20260505194538 | 78 | 156 | 1.0 | 5.0 | 0.00 | 0.00 | 0.00 | 56 | 1013.9 |
| 20260505193055 | 78 | 76 | 0.0 | 4.0 | 0.00 | 0.00 | 0.00 | 56 | 1013.9 |
| 20260505191540 | 79 | 0 | 1.0 | 5.0 | 0.00 | 0.00 | 0.00 | 55 | 1014.0 |
| 20260505190043 | 78 | 261 | 1.0 | 4.0 | 0.00 | 0.00 | 0.00 | 56 | 1014.2 |
| 20260505184539 | 78 | 103 | 0.0 | 4.0 | 0.00 | 0.00 | 0.00 | 56 | 1014.5 |
| 20260505183037 | 77 | 311 | 1.0 | 4.0 | 0.00 | 0.00 | 0.00 | 57 | 1014.7 |
| 20260505181536 | 76 | 190 | 1.0 | 4.0 | 0.00 | 0.00 | 0.00 | 58 | 1014.7 |
| 20260505180040 | 76 | 244 | 0.0 | 5.0 | 0.00 | 0.00 | 0.00 | 58 | 1015.0 |
| 20260505174533 | 76 | 255 | 1.0 | 4.0 | 0.00 | 0.00 | 0.00 | 57 | 1015.1 |
| 20260505173039 | 77 | 103 | 0.0 | 5.0 | 0.00 | 0.00 | 0.00 | 56 | 1015.2 |
| 20260505171546 | 77 | 358 | 1.0 | 4.0 | 0.00 | 0.00 | 0.00 | 55 | 1015.4 |
| 20260505170039 | 76 | 309 | 0.0 | 3.0 | 0.00 | 0.00 | 0.00 | 60 | 1015.7 |
| 20260505164540 | 76 | 314 | 1.0 | 5.0 | 0.00 | 0.00 | 0.00 | 59 | 1015.7 |
| 20260505163039 | 76 | 184 | 0.0 | 3.0 | 0.00 | 0.00 | 0.00 | 59 | 1015.9 |
| 20260505161543 | 75 | 0 | 0.0 | 4.0 | 0.00 | 0.00 | 0.00 | 60 | 1015.7 |
| 20260505153043 | 74 | 299 | 2.0 | 8.0 | 0.00 | 0.00 | 0.00 | 60 | 1015.9 |
| 20260505151538 | 73 | 294 | 1.0 | 4.0 | 0.00 | 0.00 | 0.00 | 64 | 1015.9 |
| 20260505124543 | 60 | 0 | 0.0 | 1.0 | 0.00 | 0.00 | 0.00 | 80 | 1015.2 |
| 20260505123049 | 58 | 0 | 0.0 | 0.0 | 0.00 | 0.00 | 0.00 | 84 | 1014.9 |
| 20260505121537 | 57 | 0 | 0.0 | 0.0 | 0.00 | 0.00 | 0.00 | 85 | 1014.6 |
| 20260505120051 | 56 | 0 | 0.0 | 0.0 | 0.00 | 0.00 | 0.00 | 86 | 1014.7 |
| 20260505114538 | 55 | 0 | 0.0 | 0.0 | 0.00 | 0.00 | 0.00 | 87 | 1014.4 |
| 20260505113034 | 54 | 0 | 0.0 | 0.0 | 0.00 | 0.00 | 0.00 | 87 | 1014.4 |
| 20260505111534 | 54 | 0 | 0.0 | 0.0 | 0.00 | 0.00 | 0.00 | 85 | 1014.0 |
| 20260505101538 | 55 | 0 | 0.0 | 0.0 | 0.00 | 0.00 | 0.00 | 84 | 1013.7 |
| 20260505100034 | 56 | 0 | 0.0 | 0.0 | 0.00 | 0.00 | 0.00 | 83 | 1013.8 |
| 20260505094539 | 56 | 0 | 0.0 | 0.0 | 0.00 | 0.00 | 0.00 | 83 | 1013.9 |
| 20260505093040 | 56 | 0 | 0.0 | 0.0 | 0.00 | 0.00 | 0.00 | 82 | 1014.2 |
| 20260505091538 | 57 | 0 | 0.0 | 0.0 | 0.00 | 0.00 | 0.00 | 81 | 1014.2 |
| 20260505090034 | 57 | 0 | 0.0 | 0.0 | 0.00 | 0.00 | 0.00 | 79 | 1014.2 |
| 20260505084552 | 57 | 0 | 0.0 | 0.0 | 0.00 | 0.00 | 0.00 | 80 | 1014.4 |
| 20260505083057 | 57 | 0 | 0.0 | 0.0 | 0.00 | 0.00 | 0.00 | 80 | 1014.4 |
| 20260505081553 | 57 | 0 | 0.0 | 0.0 | 0.00 | 0.00 | 0.00 | 79 | 1014.4 |
| 20260505080047 | 58 | 0 | 0.0 | 0.0 | 0.00 | 0.00 | 0.00 | 79 | 1014.5 |
| 20260505074538 | 58 | 0 | 0.0 | 0.0 | 0.00 | 0.00 | 0.00 | 77 | 1014.5 |
| 20260505073048 | 58 | 0 | 0.0 | 0.0 | 0.00 | 0.00 | 0.00 | 76 | 1014.7 |
| 20260505071546 | 58 | 0 | 0.0 | 1.0 | 0.00 | 0.00 | 0.00 | 77 | 1014.5 |
| 20260505070044 | 58 | 0 | 0.0 | 0.0 | 0.00 | 0.00 | 0.00 | 75 | 1014.5 |
| 20260505064539 | 58 | 0 | 0.0 | 0.0 | 0.00 | 0.00 | 0.00 | 74 | 1014.7 |
| 20260505063040 | 59 | 0 | 0.0 | 0.0 | 0.00 | 0.00 | 0.00 | 73 | 1014.7 |
| 20260505061535 | 59 | 0 | 0.0 | 0.0 | 0.00 | 0.00 | 0.00 | 73 | 1014.6 |
| 20260505060053 | 59 | 0 | 0.0 | 0.0 | 0.00 | 0.00 | 0.00 | 72 | 1014.9 |
| 20260505054533 | 59 | 0 | 0.0 | 0.0 | 0.00 | 0.00 | 0.00 | 74 | 1015.0 |
| 20260505053040 | 60 | 0 | 0.0 | 0.0 | 0.00 | 0.00 | 0.00 | 73 | 1014.9 |
| 20260505051539 | 60 | 0 | 0.0 | 0.0 | 0.00 | 0.00 | 0.00 | 70 | 1014.7 |
| 20260505041549 | 62 | 0 | 0.0 | 0.0 | 0.00 | 0.00 | 0.00 | 67 | 1014.2 |
| 20260505040041 | 62 | 0 | 0.0 | 0.0 | 0.00 | 0.00 | 0.00 | 67 | 1014.4 |
| 20260505034537 | 63 | 0 | 0.0 | 0.0 | 0.00 | 0.00 | 0.00 | 66 | 1014.5 |
| 20260505033040 | 63 | 0 | 0.0 | 0.0 | 0.00 | 0.00 | 0.00 | 65 | 1014.5 |
| 20260505031540 | 63 | 0 | 0.0 | 1.0 | 0.00 | 0.00 | 0.00 | 65 | 1014.4 |
| 20260505030049 | 64 | 0 | 0.0 | 0.0 | 0.00 | 0.00 | 0.00 | 64 | 1014.5 |
| 20260505024542 | 64 | 0 | 0.0 | 0.0 | 0.00 | 0.00 | 0.00 | 63 | 1014.6 |
| 20260505023034 | 64 | 0 | 0.0 | 0.0 | 0.00 | 0.00 | 0.00 | 62 | 1014.5 |
| 20260505021532 | 65 | 0 | 0.0 | 0.0 | 0.00 | 0.00 | 0.00 | 60 | 1014.4 |
| 20260505020041 | 65 | 0 | 0.0 | 0.0 | 0.00 | 0.00 | 0.00 | 60 | 1014.4 |
| 20260505014559 | 66 | 0 | 0.0 | 0.0 | 0.00 | 0.00 | 0.00 | 59 | 1014.2 |
| 20260505013047 | 67 | 0 | 0.0 | 0.0 | 0.00 | 0.00 | 0.00 | 57 | 1014.1 |
| 20260505011540 | 68 | 0 | 0.0 | 0.0 | 0.00 | 0.00 | 0.00 | 58 | 1013.9 |
| 20260505010036 | 69 | 0 | 0.0 | 0.0 | 0.00 | 0.00 | 0.00 | 54 | 1013.9 |
| 20260505004547 | 70 | 227 | 0.0 | 0.0 | 0.00 | 0.00 | 0.00 | 52 | 1013.9 |
| 20260505003053 | 71 | 0 | 0.0 | 0.0 | 0.00 | 0.00 | 0.00 | 51 | 1013.9 |
| 20260505001538 | 71 | 0 | 0.0 | 1.0 | 0.00 | 0.00 | 0.00 | 50 | 1013.7 |
| 20260505000037 | 72 | 288 | 0.0 | 1.0 | 0.00 | 0.00 | 0.00 | 50 | 1013.8 |
| 20260504234543 | 73 | 0 | 0.0 | 2.0 | 0.00 | 0.00 | 0.00 | 52 | 1013.7 |
| 20260504233038 | 74 | 0 | 0.0 | 2.0 | 0.00 | 0.00 | 0.00 | 47 | 1013.9 |
| 20260504231537 | 74 | 0 | 0.0 | 2.0 | 0.00 | 0.00 | 0.00 | 46 | 1013.8 |
| 20260504230038 | 75 | 287 | 0.0 | 2.0 | 0.00 | 0.00 | 0.00 | 45 | 1013.9 |
| 20260504224538 | 75 | 254 | 1.0 | 5.0 | 0.00 | 0.00 | 0.00 | 43 | 1014.0 |